sat.trackr.live / text

‹ back to catalog

STARLINK-31439

NORAD 59178 · 2024-045A

PAYLOAD ACTIVE UNKNOWN

§ Identity

Operator
Country
US
Launch date
2024-03-10
Launch site
AFETR
Launch vehicle
Mass (kg)
RCS (m²)

Purposes: comms

External: N2YO · Heavens-Above · Gunter

§ Orbital elements

Epoch: 2026-05-25T00:32:23.275104Z

Period
94.27 min
Inclination
43.0035°
Eccentricity
0.0001048
Mean motion
15.27594161 rev/d
Perigee alt
482.3 km
Apogee alt
483.7 km
Semi-major
6,861.1 km
B*
1.4031e-4
RAAN
18.1581°
Arg perigee
270.3771°
Mean anomaly
89.6961°
Rev number
6,120

§ Raw data

STARLINK-314391 59178U 24045A   26145.02249161  .00003603  00000+0  14031-3 0  99912 59178  43.0035  18.1581 0001048 270.3771  89.6961 15.27594161 61200

JSON: /api/v1/satellites/59178 · /tle

For live sub-satellite position, see the globe view (requires WebGL).

§ Visibility from observer

Set your observer location to see the next 7 days of passes ≥ 10°. The values pass through the URL so the page stays shareable.

No JS? Fill the form by hand. The geolocation button needs JavaScript.